カタログに戻る

STARLINK-33924

運用中通信SSO
NORAD 64149·PAYLOAD·🇺🇸 United States

打ち上げ May 27, 2025 から Vandenberg Space Force Base

Loading…

次のパス (今後24時間)

TLE

最新Source: CelesTrak SupGP

元期: Sep 14, 2026, 22:27 UTC

1 64149C 25112D   26257.93590278  .00027185  00000+0  84408-3 0  2576
2 64149  97.2837 305.0559 0001248  91.5658 277.3945 15.33418495    19

AllMySatでSTARLINK-33924をリアルタイム追跡

Download on the App Store